RH
65 68 79 78 81 82 82 87 90 89 88 91 91 85 79 78 77 75 73 68 66 63 59 57 55 52 51 50 49 46 43 40 39 36 34 32 31 27
93 93 86 77 78 87 88 90 93 92 90 91 95 95 88 80 75 70 67 66 64 61 56 47 40 35 33 33 32 32 32 33 32 32 32 32 32 31
87 92 90 83 78 80 85 92 97 96 95 93 92 91 94 92 87 80 75 69 63 58 51 44 41 40 37 33 30 27 25 24 22 20 19 19 20 20
79 99 100 86 77 83 75 79 89 99 99 96 94 94 93 91 87 84 83 82 74 62 56 52 49 48 48 44 40 39 34 31 30 26 22 18 15 13
100 100 100 94 90 90 79 81 74 84 88 91 94 93 88 83 82 83 78 69 69 68 64 56 49 46 48 46 44 41 37 34 30 28 26 24 20 17
99 100 100 100 100 93 97 85 78 63 90 92 83 82 78 71 76 77 68 60 53 45 42 44 49 49 48 46 42 39 35 30 25 21 18 18 19 19
100 99 94 100 100 100 100 98 90 77 61 85 97 82 73 62 46 43 55 63 61 56 50 40 34 32 29 28 28 28 27 25 22 19 17 16 15 15
100 100 100 100 100 100 100 100 100 96 100 78 94 86 66 58 61 51 49 42 35 41 44 46 43 39 34 28 30 29 24 20 20 20 17 15 14 14
74 100 100 100 100 87 77 68 53 38 69 99 98 100 88 70 61 70 55 50 36 23 23 23 23 24 34 34 32 29 28 26 24 22 20 16 13 12
14 32 46 36 41 33 24 20 19 36 50 68 96 100 100 91 85 77 72 60 41 26 17 15 11 12 13 15 16 22 27 26 20 19 21 18 17 14
13 16 21 25 50 66 77 69 73 82 87 93 98 99 100 97 94 74 64 53 49 38 25 14 8 5 6 6 6 5 7 12 15 15 16 16 14 13
59 66 85 100 100 100 100 100 92 98 94 94 95 97 98 97 78 72 66 55 46 37 24 14 8 5 4 4 4 4 3 3 2 4 7 9 10 9
100 100 100 100 100 100 98 93 85 79 77 78 81 85 77 70 66 60 55 48 40 32 21 14 11 7 5 4 4 3 3 2 2 2 2 2 3 5
100 100 100 100 100 100 100 100 97 100 99 83 82 79 75 64 53 47 41 37 31 22 15 11 9 8 7 5 5 5 3 2 2 2 2 2 1 2
100 100 100 100 100 100 100 93 93 95 80 68 61 53 48 42 36 32 29 25 22 19 17 15 12 11 10 9 8 7 6 4 3 3 3 2 2 1
100 100 100 100 99 92 83 78 66 52 48 48 44 43 41 40 39 38 36 34 30 25 21 18 14 13 12 10 10 10 9 10 8 7 8 6 3 3
100 97 95 83 75 56 50 50 52 54 54 53 51 48 46 47 46 46 46 46 45 43 38 27 18 16 15 16 15 14 20 23 21 20 19 18 9 7
98 92 81 64 54 55 57 56 51 48 46 46 45 46 48 48 46 44 42 42 42 43 43 42 38 28 22 21 18 22 25 26 26 24 22 19 18 14
97 87 66 53 59 61 55 47 44 42 41 42 42 40 36 32 31 31 32 32 32 34 35 35 36 39 40 36 33 20 25 27 26 24 22 18 14 13
100 88 68 62 60 45 32 26 23 22 22 23 22 22 22 20 21 21 22 23 25 29 30 28 30 32 33 38 39 38 24 24 25 24 22 20 17 13
100 90 72 49 30 27 29 32 34 37 41 38 37 28 27 28 27 27 27 29 32 32 31 28 27 25 28 30 34 37 39 24 21 22 21 20 18 14
98 77 42 30 31 38 46 51 56 59 65 66 54 49 39 35 32 33 34 37 43 42 39 32 25 23 23 24 28 30 37 38 27 22 23 19 17 15
91 76 47 36 44 62 72 81 81 75 58 59 68 73 73 58 51 39 38 37 38 41 40 34 35 31 23 21 21 26 28 36 35 29 24 21 19 16
Wind_Speed
48 48 46 45 44 44 44 42 42 42 41 41 41 41 40 39 39 39 39 38 39 39 39 38 37 36 36 35 35 35 34 33 32 32 31 30 30 30
49 46 44 44 43 43 43 42 41 41 42 42 41 42 42 42 41 40 40 40 41 40 40 38 37 35 34 33 32 32 32 32 32 32 33 33 33 32
51 48 48 48 46 44 43 44 43 42 42 43 44 44 43 44 44 44 44 44 43 43 42 41 38 37 36 36 35 33 32 32 31 31 30 30 29 30
52 53 57 56 52 48 45 46 46 46 45 45 46 46 46 47 47 48 49 49 49 49 48 45 43 42 42 42 40 39 38 37 36 35 35 34 32 31
51 54 60 59 56 53 50 49 50 50 49 50 52 51 50 50 51 52 52 52 53 53 53 52 51 49 48 48 47 47 45 44 43 42 41 39 37 36
62 61 61 63 59 59 60 61 60 55 54 55 56 57 56 55 55 55 57 57 57 56 56 55 55 53 53 52 52 52 49 48 46 44 43 42 42 41
68 68 68 66 66 65 60 60 62 60 59 60 59 60 59 60 59 59 60 61 62 61 61 60 58 57 55 53 52 52 51 50 48 46 45 43 42 42
65 66 69 71 70 69 69 67 66 66 66 65 63 66 65 63 65 65 65 64 64 65 64 66 65 64 62 59 57 54 53 53 51 49 45 45 43 43
77 78 76 73 75 77 75 76 72 67 66 63 64 65 68 66 63 64 67 67 67 69 66 65 66 67 67 64 62 61 59 57 56 54 52 49 46 45
71 74 76 77 75 70 67 65 63 59 58 57 60 58 59 62 63 63 66 65 69 71 71 68 67 66 68 69 66 65 63 62 60 58 56 54 52 50
66 64 62 60 58 57 55 57 55 56 56 57 57 57 59 62 61 63 66 67 69 71 73 72 71 67 64 68 68 68 68 66 63 61 60 59 57 55
56 55 53 53 52 49 50 49 50 52 53 54 56 58 59 59 62 63 63 65 68 71 72 68 67 68 61 61 65 65 64 65 65 66 64 62 61 58
52 51 48 49 50 49 49 50 51 52 52 53 56 57 58 61 61 62 64 65 66 65 66 62 60 60 61 57 57 64 63 62 61 60 63 64 64 63
49 47 45 46 48 48 49 50 50 49 53 56 55 55 56 57 59 60 62 64 64 59 57 55 54 53 53 53 53 55 58 59 57 57 57 59 61 62
41 44 46 48 50 51 50 51 52 54 56 56 56 57 58 58 58 56 54 52 51 50 49 47 46 46 47 47 47 50 50 53 55 53 56 58 60 62
47 50 51 52 51 52 55 56 57 57 55 54 53 50 48 45 44 43 43 43 43 43 42 41 40 39 39 41 40 41 43 44 48 47 46 50 55 58
52 52 52 51 55 53 49 47 44 41 39 39 39 37 37 38 38 38 38 37 37 37 38 38 37 36 35 35 37 37 38 39 40 40 39 40 44 47
49 47 49 48 43 42 39 36 36 36 35 35 35 35 35 35 34 35 34 34 35 35 35 34 34 33 34 34 35 37 36 37 38 38 38 37 39 40
41 38 38 37 38 37 37 37 36 35 32 31 31 32 32 32 32 33 33 33 34 35 35 34 33 31 32 34 35 35 37 37 38 37 35 36 37 39
39 39 37 34 35 35 35 32 29 25 24 25 27 29 30 31 31 32 33 34 34 35 36 37 36 33 31 31 32 36 35 38 37 37 38 37 37 38
40 40 37 35 35 34 30 28 25 24 24 23 24 26 27 29 31 33 34 35 35 34 34 36 38 38 34 33 32 30 35 36 38 39 41 42 40 39
39 38 39 39 38 36 33 31 30 30 31 31 33 33 33 32 31 33 35 36 36 36 36 36 37 37 37 37 34 32 31 35 38 36 37 39 39 38
45 44 45 45 43 41 40 39 38 39 38 38 38 40 42 42 41 38 37 37 37 39 40 37 37 39 39 39 37 35 33 33 37 38 37 36 36 37
Wind_Direction
281 283 284 283 281 279 278 277 275 273 272 271 271 271 271 271 270 270 270 269 268 267 267 267 267 266 266 265 266 266 265 264 264 266 267 270 273 275
277 279 281 282 281 279 278 278 275 273 272 272 271 270 269 269 269 269 268 268 267 267 268 268 268 269 268 266 264 264 267 268 267 267 269 269 271 273
276 273 276 277 278 279 277 276 276 273 271 270 270 270 270 269 268 268 268 267 267 266 266 265 265 266 266 267 267 266 265 266 269 270 270 270 271 273
277 271 271 275 275 277 277 275 275 273 274 272 271 271 271 271 270 270 269 268 268 266 266 265 263 263 265 266 267 268 268 270 271 271 270 269 269 271
266 265 266 274 272 270 273 277 278 275 276 276 275 276 275 274 274 272 272 271 270 270 269 268 266 265 264 265 266 267 268 269 269 269 270 269 268 269
259 260 263 268 266 267 272 278 278 275 272 272 275 276 278 278 276 275 275 273 272 270 269 268 267 266 265 264 266 267 267 266 266 266 265 266 266 265
259 262 264 263 264 267 271 273 278 276 275 272 272 273 275 277 277 277 275 275 274 273 273 271 270 268 266 265 264 265 265 265 265 264 264 263 262 262
263 261 260 262 264 269 270 272 273 275 274 273 270 273 275 276 276 278 276 276 275 273 274 272 271 270 268 267 267 266 265 266 266 266 264 262 260 258
257 259 263 265 267 270 272 274 273 271 267 264 267 270 275 276 277 274 276 279 278 274 273 274 272 272 269 267 266 265 264 264 263 264 264 262 259 258
261 262 264 266 269 269 270 270 271 268 266 266 265 265 266 269 271 272 276 278 280 280 279 281 276 276 271 267 267 265 263 262 262 262 262 261 260 259
261 262 264 266 267 268 269 270 268 266 265 263 263 262 264 266 267 272 275 278 280 283 284 284 282 281 279 275 271 267 263 261 261 260 258 258 258 258
260 262 263 260 261 261 262 262 264 261 262 262 261 261 263 264 267 272 273 277 281 285 286 284 283 280 278 276 274 271 268 263 260 258 257 256 255 254
255 255 254 255 258 260 262 264 264 267 267 267 266 267 269 271 272 273 276 279 281 283 282 281 279 278 276 271 268 269 267 265 263 259 255 253 252 251
253 249 254 258 261 265 265 266 268 265 268 273 274 274 275 275 276 278 279 279 279 277 276 276 274 272 269 267 264 262 262 261 256 254 249 247 246 245
253 254 254 256 258 257 259 265 269 269 273 274 274 276 275 275 275 275 275 275 274 273 272 271 270 270 268 264 260 260 257 257 253 248 244 241 239 237
252 253 253 257 266 271 271 273 276 274 270 269 270 272 272 273 274 275 276 277 278 277 275 273 271 268 266 264 259 254 253 251 253 248 244 241 238 235
256 259 265 271 274 273 271 269 268 267 267 268 270 271 273 274 275 276 277 279 280 280 279 277 273 270 266 262 261 253 245 246 245 247 247 245 241 239
265 268 271 270 266 264 264 263 263 264 266 267 269 271 273 275 277 278 278 279 280 280 280 280 278 275 271 265 256 253 248 243 244 242 243 245 244 238
260 259 260 260 259 259 260 260 259 260 260 263 267 270 272 273 275 277 278 279 279 281 281 279 277 274 272 270 268 255 245 246 243 243 243 243 247 244
251 254 254 256 257 255 255 251 250 251 257 264 269 272 276 280 283 283 283 282 281 282 283 283 280 275 271 268 266 266 256 243 244 249 250 249 248 249
245 248 250 250 248 245 243 241 244 251 258 263 274 273 277 284 285 287 288 287 286 285 286 286 284 282 278 271 268 264 262 254 245 245 249 249 247 248
239 241 243 241 242 245 248 249 254 259 264 268 272 276 276 279 282 285 289 289 289 288 286 288 286 284 279 274 269 263 260 256 253 243 240 243 245 244
236 239 241 242 243 245 247 249 252 258 263 268 269 271 274 275 279 280 283 284 286 286 287 285 284 285 284 279 271 265 260 252 249 252 246 240 243 243